Flag for U.S.A. Weather past 2 weeks in Portsmouth, Virginia, U.S.A.

Now
74 °F

Scattered clouds.


Feels Like: 76 °F
Forecast: 58 / 71 °F
Wind: 12 mph from West

Location: Norfolk Naval Air Station

Current Time: Apr 21, 2015 at 3:50:48 PM

Latest Report: Apr 21, 2015 at 2:59 PM


Visibility: 10 mi

Pressure: 29.79 "Hg

Humidity: 28%

Dew point: 39 °F

Location of PortsmouthLocation

Historic Weather in Portsmouth — Graph

°F

Portsmouth temperature yesterday

Maximum temperature yesterday: 83 °F (at 3:59 PM)
Minimum temperature yesterday: 68 °F (at 5:59 AM)
Average temperature yesterday: 76 °F

Past Weeks' High & Low Weather Summary

 TemperatureHumidityPressure
High87 °F (Apr 10, 2:59 PM)90% (Apr 9, 9:59 AM)30.41 "Hg (Apr 9, 9:59 AM)
Low48 °F (Apr 9, 7:59 PM)25% (Apr 13, 4:59 PM)29.64 "Hg (Apr 20, 5:59 PM)
Average66 °F64%30.11 "Hg
* Reported Apr 6 1:59 PM — Apr 21 1:59 PM, Portsmouth, Weather by CustomWeather, © 2015

Note: Actual official high and low records may vary slightly from our data, if they occured in-between our weather recording intervals... More about our weather records

Advertising

Portsmouth weather history for previous 24 hours

 ConditionsComfort  
Time TempWeatherWind HumidityBarometerVisibility
1:59 PM
Tue, Apr 21
74 °FScattered clouds.12 mph29%29.81 "Hg10 mi
12:59 PM72 °FPassing clouds.10 mph30%29.82 "Hg10 mi
11:59 AM71 °FPassing clouds.10 mph38%29.82 "Hg10 mi
10:59 AM70 °FPassing clouds.15 mph41%29.83 "Hg10 mi
9:59 AM70 °FScattered clouds.14 mph44%29.81 "Hg10 mi
8:59 AM68 °FScattered clouds.13 mph59%29.80 "Hg10 mi
7:59 AM67 °FScattered clouds.13 mph63%29.77 "Hg10 mi
6:59 AM66 °FPassing clouds.14 mph70%29.74 "Hg10 mi
5:59 AM65 °FPassing clouds.8 mph76%29.70 "Hg10 mi
4:59 AM66 °FPassing clouds.10 mph70%29.68 "Hg10 mi
3:59 AM70 °FLight rain. Mostly cloudy.12 mph73%29.66 "Hg10 mi
2:59 AM72 °FPartly cloudy.13 mph68%29.66 "Hg10 mi
1:59 AM73 °FPassing clouds.10 mph66%29.66 "Hg10 mi
12:59 AM74 °FPassing clouds.9 mph64%29.66 "Hg10 mi
11:59 PM
Mon, Apr 20
75 °FPartly cloudy.12 mph64%29.66 "Hg10 mi
10:59 PM76 °FPartly cloudy.10 mph64%29.66 "Hg10 mi
9:59 PM77 °FLight rain. Overcast.12 mph64%29.67 "Hg10 mi
8:59 PM78 °FOvercast.9 mph58%29.66 "Hg10 mi
7:59 PM79 °FCloudy.8 mph54%29.65 "Hg10 mi
6:59 PM80 °FMore clouds than sun.8 mph52%29.64 "Hg10 mi
5:59 PM82 °FOvercast.13 mph48%29.64 "Hg10 mi
4:59 PM82 °FMore clouds than sun.14 mph48%29.65 "Hg10 mi
3:59 PM83 °FBroken clouds.14 mph46%29.66 "Hg10 mi
Weather by CustomWeather, © 2015

See weather overviewHow to use our weather pages